User: anonymous   Login
Location: Bergnershof
(48.9468°N, 10.9431°E)
Time: 23:46:32
(UTC+00:00)
Language:

BREEZE-M DEB (TANK) - Orbit

View from above orbital plane
View from above orbital plane
View from above satellite
View from above satellite

Ground track
Ground track

The orbit data is extracted from the following two-line orbital elements,

1 29271U 06032C   21129.50113146  .00001100  00000-0  29720-3 0  9993
2 29271  49.5259 311.3229 5299964 111.4645 311.5479  5.11324364268683
Epoch (UTC): 09 May 2021 12:01:37
Eccentricity: 0.5299964
inclination: 49.5259°
perigee height: 311 km
apogee height: 15397 km
right ascension of ascending node: 311.3229°
argument of perigee: 111.4645°
revolutions per day: 5.11324364
mean anomaly at epoch: 311.5479°
orbit number at epoch: 26868

The dashed part of the orbit path shows where the satellite is in the earth's shadow,  

DLR